Wind_Gust
26 32 36 39 34 32 32 32 30 27 24 26 25 25 30 30 26 26 31 23 33 29 30 29 26 25 23 24 22 24 23 22 22 20 19 20 20 20 19 21 22 21 21 21 21 20 20 19 18 18 18 16 14 11 13 18 17 16 18 17 14 13 13 15 15 13 12 13 12 11 12 11 9 8 11 10 10 10 10 13 12 11 10 12 16 11
30 34 36 32 29 29 33 30 29 30 33 27 26 25 29 29 30 25 30 26 34 26 24 26 27 25 23 25 24 22 22 22 23 23 21 21 20 17 22 23 24 22 21 21 20 22 19 19 17 16 18 16 19 13 13 15 17 15 14 17 14 12 10 11 13 14 13 10 11 14 14 11 9 9 9 9 8 9 10 13 13 14 16 12 10 10
38 41 33 29 30 29 31 32 28 30 33 32 29 27 28 30 29 27 27 30 31 27 22 26 28 27 27 25 23 24 20 20 21 23 25 26 21 19 20 22 22 26 24 22 22 21 21 21 20 18 18 16 15 15 14 14 15 15 15 15 12 13 12 12 13 15 15 9 10 11 13 11 10 8 10 8 7 8 11 18 16 14 12 14 15 13
35 34 30 30 28 30 30 32 32 31 33 31 30 29 30 26 30 32 32 29 28 31 21 25 26 18 27 20 19 17 16 16 15 18 21 23 29 26 25 27 25 18 27 31 28 28 26 23 21 20 19 19 16 16 15 14 18 15 13 14 14 15 13 12 10 13 12 13 14 12 13 10 9 11 8 8 7 7 11 10 12 18 18 16 16 16
32 23 27 29 30 32 32 33 34 33 32 32 30 28 27 25 30 31 26 30 24 22 20 21 24 26 23 25 19 15 17 16 16 22 22 19 15 18 16 16 19 21 17 20 23 24 27 24 21 21 19 19 18 14 14 14 14 16 17 15 16 15 14 13 11 13 14 16 15 15 14 11 13 11 10 8 8 10 12 15 16 16 16 17 17 15
30 28 29 32 33 33 35 33 38 33 32 32 31 29 24 21 26 29 29 26 25 23 27 32 28 26 26 28 26 21 19 16 18 21 23 23 20 20 20 20 18 17 15 21 23 22 21 23 21 20 20 18 17 16 13 11 14 17 17 16 16 15 13 14 14 12 13 14 17 15 15 13 11 11 9 9 11 13 14 15 12 14 15 15 15 14
27 27 32 34 33 33 34 32 31 33 31 29 34 30 30 27 26 29 35 26 24 28 27 29 30 20 26 27 29 24 20 19 19 20 24 26 24 22 19 20 23 23 18 17 20 22 22 21 22 20 18 17 17 16 16 13 15 15 17 15 14 15 14 12 13 13 14 15 14 14 14 13 14 13 8 8 12 15 12 13 14 13 13 14 15 13
30 33 32 33 34 36 35 37 35 36 33 36 22 26 29 29 29 29 30 29 23 20 18 27 36 25 22 22 25 25 25 23 19 21 22 23 24 21 20 21 21 21 19 21 20 21 20 20 22 21 19 18 19 18 17 17 15 17 18 15 16 14 14 13 13 13 12 15 13 14 13 13 13 12 13 12 13 13 13 15 13 13 13 13 14 14
27 33 33 35 34 37 38 32 27 33 39 29 22 27 30 30 29 29 32 32 23 22 24 26 30 37 26 28 28 30 27 22 22 23 24 25 25 22 23 22 23 23 23 24 23 23 24 22 20 20 20 18 19 17 16 15 15 16 17 16 15 14 13 12 12 14 13 13 13 13 14 15 12 13 13 14 14 15 14 13 12 15 15 13 12 13
32 28 32 32 35 35 28 31 29 30 37 27 23 29 30 26 27 25 21 28 23 28 21 26 31 36 26 29 33 27 27 28 25 23 23 26 26 25 25 23 25 23 22 23 22 22 20 20 21 18 17 19 17 16 17 14 14 14 16 18 17 15 14 13 14 15 13 12 12 13 12 16 14 13 14 14 15 13 12 15 13 14 13 11 11 12
27 23 27 35 39 31 28 29 31 27 29 22 28 29 32 29 24 20 24 30 24 22 27 26 28 30 28 30 38 37 39 34 28 23 23 28 29 25 25 29 27 27 25 24 23 20 19 19 21 21 22 21 20 19 20 18 15 12 16 16 19 16 15 13 14 13 13 12 10 11 12 13 15 14 15 16 15 15 13 14 13 13 10 10 11 11
30 28 32 35 27 31 26 32 30 27 30 28 33 28 26 24 22 22 23 20 24 28 29 30 27 31 30 22 28 32 30 31 33 32 32 31 32 32 25 29 27 24 23 23 23 22 22 21 23 20 22 20 20 21 20 17 16 14 13 14 18 16 16 15 14 14 16 16 15 15 16 17 16 15 15 16 15 14 14 12 13 12 12 12 11 9
33 34 26 25 29 33 33 28 32 29 30 34 27 25 25 28 28 29 25 24 29 30 23 28 28 28 34 26 33 29 27 31 29 34 35 33 33 30 28 29 28 25 22 24 24 24 23 22 24 23 21 20 20 22 20 21 18 15 14 14 19 20 17 17 17 18 17 16 15 16 16 15 15 15 15 15 14 11 13 13 15 12 12 11 12 10
27 30 33 29 27 33 29 34 35 34 34 36 34 29 31 33 31 24 27 22 19 20 18 23 28 37 18 28 37 35 33 33 31 28 31 32 32 30 30 28 26 27 26 24 24 23 23 25 22 21 22 19 19 20 21 18 16 15 16 17 19 19 17 17 17 17 17 16 15 14 15 15 16 17 16 15 15 15 14 15 14 12 12 11 10 8
29 40 40 34 32 28 35 30 28 24 30 36 28 30 26 27 35 25 30 29 23 19 25 25 30 28 23 18 34 36 34 32 32 32 30 28 30 30 31 27 26 24 20 25 29 26 25 26 21 23 21 20 21 21 20 17 18 18 18 19 19 19 17 18 17 16 16 14 13 14 15 15 15 16 16 15 14 14 15 14 14 12 12 10 8 9
29 25 28 26 16 28 28 27 28 26 26 31 30 26 29 29 19 29 16 18 22 23 20 24 22 10 17 24 31 25 29 28 27 30 29 30 31 32 31 30 28 25 25 23 24 26 25 25 22 22 21 20 20 20 18 19 19 19 18 16 17 18 18 18 17 16 15 14 15 14 15 14 15 15 15 15 15 15 14 14 13 11 9 8 8 8
32 32 28 34 28 33 32 28 34 30 35 33 32 38 33 25 22 12 14 10 8 9 22 13 22 11 14 20 24 28 30 27 30 30 30 32 33 31 29 28 25 27 26 25 25 26 27 24 22 21 20 20 20 19 17 18 18 18 17 17 18 18 17 17 16 16 15 13 13 12 13 13 14 15 14 15 15 15 14 12 11 11 10 9 8 6
27 22 28 34 33 29 31 29 29 31 26 31 37 32 24 23 22 22 21 15 15 19 19 20 25 18 19 16 23 22 28 27 28 34 35 36 33 30 27 27 30 30 26 25 24 23 24 24 25 22 20 19 19 18 19 19 15 15 16 17 18 18 17 16 16 15 13 14 14 14 15 14 14 15 15 14 14 14 13 9 8 8 9 7 6 6
25 24 32 30 29 27 28 29 31 31 29 27 29 21 35 24 23 21 19 17 24 23 20 24 22 28 27 27 21 19 26 24 25 33 38 36 31 27 27 29 27 29 26 25 24 25 25 24 23 22 20 20 19 18 19 19 18 16 15 16 16 17 17 16 16 14 14 12 13 13 13 14 14 12 13 12 12 10 10 10 11 11 11 9 7 7
21 21 27 27 30 28 31 32 30 34 33 29 20 29 26 22 24 20 21 15 24 17 16 21 25 26 25 32 24 23 27 31 31 32 31 33 35 31 31 31 29 28 25 24 25 24 25 22 23 23 23 22 22 20 20 19 20 19 18 17 16 16 16 16 14 13 13 13 13 15 15 14 13 15 14 12 12 12 12 11 11 10 8 8 8 10
22 16 25 31 27 29 36 38 31 29 33 35 32 35 33 30 15 22 21 29 23 19 21 19 22 26 19 29 28 27 33 34 36 34 33 34 32 32 35 31 27 26 25 24 25 26 26 24 23 23 22 22 21 19 17 18 19 18 17 17 17 17 18 15 14 14 13 14 14 14 14 13 13 14 13 13 13 13 12 10 10 8 7 8 11 11
18 23 18 28 31 32 27 26 23 25 25 27 30 33 29 29 27 27 26 30 33 24 21 20 21 17 15 26 20 26 35 39 37 37 33 32 33 33 35 28 27 26 24 25 23 25 26 24 24 23 23 22 25 22 20 20 18 17 17 17 19 20 20 18 18 14 11 12 13 12 12 12 12 13 14 14 13 12 11 10 9 8 10 12 12 13
19 23 22 21 28 28 24 23 26 23 22 25 25 28 29 28 27 24 25 21 25 25 17 20 16 16 14 8 21 25 36 36 35 36 32 31 33 33 35 29 26 27 27 28 27 25 25 24 25 26 26 24 22 23 23 20 19 18 17 18 20 19 17 17 17 16 13 14 13 12 12 13 13 13 12 13 12 11 12 11 10 10 12 13 13 14
9 26 26 26 23 22 23 22 27 27 23 26 27 24 26 30 29 20 21 14 20 20 20 14 17 14 13 8 10 19 28 33 31 31 31 29 31 36 35 31 27 26 25 28 30 25 26 24 25 25 23 24 23 23 22 21 22 19 19 18 18 19 18 17 15 15 15 14 15 14 13 13 13 12 11 11 10 11 10 11 11 12 14 14 15 17
24 20 23 23 26 29 26 24 31 32 34 31 29 31 26 25 27 24 17 12 14 18 20 16 21 10 11 10 21 20 29 28 28 31 35 30 27 33 35 28 26 26 28 29 31 29 25 26 26 26 27 25 23 23 20 21 21 20 18 18 20 20 19 19 16 16 16 14 14 14 14 13 14 12 12 11 11 11 11 11 12 11 12 12 13 13
14 22 27 26 28 30 33 37 40 36 35 26 26 30 29 25 26 26 21 18 15 11 22 21 14 19 15 12 19 24 21 28 30 29 29 35 31 32 32 27 27 27 28 29 30 30 27 26 25 26 25 28 27 24 22 20 19 19 19 19 18 21 19 18 17 17 17 17 17 16 16 14 13 13 12 12 12 12 12 13 12 12 12 13 15 15
16 20 20 22 23 23 23 21 17 19 23 26 25 29 31 26 24 20 15 16 20 12 17 19 18 22 17 17 23 27 30 27 30 27 33 30 28 28 27 27 26 27 29 29 27 28 25 23 26 25 24 24 24 22 22 22 22 21 20 20 19 20 18 17 18 18 17 16 16 18 16 15 13 12 11 11 11 12 13 13 12 13 14 13 14 15
10 13 24 22 23 22 23 23 24 26 28 28 26 27 27 27 25 21 19 23 15 16 20 16 19 22 17 15 18 25 29 26 24 26 27 29 29 26 25 24 19 24 25 25 24 27 27 25 25 24 24 23 24 24 23 22 20 20 21 24 22 19 16 16 17 18 19 16 16 16 16 13 13 12 12 11 12 12 12 12 12 12 12 13 15 15
20 10 15 21 22 20 21 22 24 28 26 26 25 21 21 21 25 27 17 21 15 15 13 11 16 16 17 15 20 23 25 27 26 27 26 27 25 23 25 24 25 25 25 26 26 25 27 25 23 23 23 23 24 25 22 22 21 18 22 21 21 19 18 18 19 18 17 17 17 15 14 14 13 13 13 13 13 14 14 13 13 13 13 14 16 17
23 14 16 21 16 16 19 22 25 28 28 27 25 21 21 23 25 26 21 17 19 15 21 17 18 14 16 20 24 22 21 28 26 24 22 23 26 28 27 26 26 26 26 28 28 25 26 26 24 23 23 22 26 25 24 25 24 21 20 21 21 19 17 17 17 18 18 19 17 15 16 15 13 15 14 13 13 12 12 12 12 14 14 15 16 16
8 16 17 22 20 19 21 21 18 22 23 28 28 26 23 22 26 25 19 14 16 19 14 16 17 14 16 25 26 23 23 26 25 24 26 27 24 24 25 25 25 24 24 26 27 27 24 26 25 25 22 23 23 23 25 24 21 20 21 21 19 19 18 18 18 17 17 18 17 17 16 16 15 15 14 13 13 11 12 12 13 13 12 13 15 17
10 10 19 21 15 15 16 15 17 19 21 25 25 23 25 21 20 20 26 18 16 15 12 14 16 15 18 27 25 25 26 27 28 27 27 27 29 27 25 25 25 24 25 27 27 25 27 25 25 25 24 24 23 22 22 22 22 21 22 22 21 19 18 18 18 18 18 17 17 17 17 16 16 15 15 13 14 14 13 13 13 13 12 13 14 15
18 13 16 13 14 13 15 19 12 12 17 22 20 23 25 20 17 19 23 21 19 11 12 12 19 24 31 28 25 21 24 25 26 27 26 28 31 32 32 31 30 27 26 28 28 30 28 28 26 25 25 24 25 23 19 19 21 21 19 20 19 19 19 17 17 18 18 17 18 17 16 16 16 15 14 14 14 13 13 13 13 13 13 13 13 14
16 17 17 14 15 14 19 16 11 13 17 20 9 12 17 20 22 24 22 17 14 15 19 15 22 25 25 25 29 25 25 27 26 22 24 32 28 25 26 28 27 24 23 25 28 30 29 27 22 27 29 26 24 24 21 18 18 20 18 20 20 20 19 19 19 18 18 17 17 16 16 16 15 15 14 13 14 14 15 14 14 12 12 12 13 15
13 11 10 20 14 14 10 10 13 17 20 12 13 14 13 17 20 27 21 25 23 23 19 20 24 20 22 21 25 22 17 19 20 24 22 23 26 26 26 24 24 24 27 28 26 25 24 27 27 24 24 21 20 22 23 21 19 20 21 18 20 20 20 18 19 18 17 17 16 15 16 16 16 15 15 15 16 15 15 13 13 12 11 12 12 14
9 11 11 15 14 10 16 19 21 21 7 7 10 15 12 12 13 14 22 22 25 22 19 20 20 21 23 22 19 21 24 22 19 19 22 23 22 24 26 27 27 29 28 27 29 30 28 28 34 31 25 20 23 24 22 19 20 21 18 19 20 17 17 18 18 18 16 17 16 17 15 16 15 15 15 16 15 14 13 12 13 14 13 12 12 12
16 14 9 14 18 16 14 16 19 8 9 10 9 12 15 15 11 7 5 22 21 20 23 24 21 19 26 23 24 26 24 22 19 17 18 22 19 19 26 27 26 26 28 26 30 30 31 30 26 24 24 23 23 22 19 21 21 19 21 22 18 16 17 17 18 18 17 16 16 15 15 15 16 16 15 15 15 14 13 14 13 13 12 14 13 14
20 16 14 14 15 12 13 17 18 18 17 10 15 10 8 11 11 10 7 15 9 17 17 17 23 23 24 25 25 27 24 23 19 20 19 22 20 20 25 25 25 25 28 28 25 26 26 23 23 21 23 24 21 18 20 20 22 24 22 18 18 19 19 19 19 18 17 16 16 15 15 15 15 15 15 14 14 13 13 12 12 13 14 15 14 14
20 17 12 13 11 11 12 19 19 16 16 11 12 13 11 10 6 4 8 19 13 13 13 20 23 22 24 26 26 26 25 21 19 21 21 23 21 25 28 26 27 27 28 29 29 24 22 23 23 23 21 21 22 21 20 23 24 23 21 20 22 22 19 19 18 18 18 17 15 15 14 14 14 14 14 14 13 13 14 13 13 13 14 15 14 14
23 17 10 13 12 13 11 12 15 16 9 6 9 16 15 11 8 14 19 23 10 15 17 15 13 23 26 27 28 25 26 18 21 23 24 23 25 26 29 29 28 28 28 28 28 29 27 25 25 23 23 23 22 22 24 23 24 20 21 21 21 23 21 17 18 18 16 16 15 14 15 14 15 13 14 13 11 11 11 11 13 14 15 14 14 14
18 16 15 15 15 14 10 13 13 8 11 11 7 9 13 11 15 16 21 10 10 14 17 18 18 15 17 30 29 26 22 27 27 27 28 30 31 28 27 28 29 30 30 27 25 21 26 25 28 30 28 27 27 25 24 23 22 20 17 18 19 19 19 18 19 19 19 18 17 17 16 14 14 15 13 12 12 12 11 12 13 12 13 13 13 13
18 15 15 13 16 18 16 16 17 7 8 11 11 9 12 14 15 18 10 8 11 13 13 20 22 21 16 22 22 25 23 17 28 32 30 32 34 31 30 30 29 25 26 25 23 23 23 24 24 27 28 25 26 25 23 23 22 20 19 19 19 18 19 20 20 19 19 18 18 16 15 14 14 12 13 12 12 12 11 8 10 11 13 13 12 12
20 19 21 22 18 15 12 15 16 15 9 11 17 16 15 14 10 10 8 8 11 12 13 14 24 20 21 24 20 17 18 30 32 30 30 32 34 34 33 36 36 31 31 28 25 25 29 27 28 28 26 28 26 24 22 22 21 20 19 21 20 20 20 20 19 19 18 17 17 16 15 14 12 12 12 12 11 11 11 11 13 12 12 12 10 10
20 22 19 17 18 20 16 20 16 12 15 10 14 10 11 8 9 5 9 8 15 17 12 12 13 13 18 22 22 16 26 29 29 32 31 31 30 31 31 30 28 28 27 26 27 26 25 27 27 27 25 23 23 22 22 24 24 21 21 23 22 20 20 19 19 19 18 17 17 17 17 17 15 13 12 12 12 10 11 12 12 11 11 10 11 11
20 21 8 9 12 19 10 11 10 6 11 10 11 10 10 10 7 8 7 9 8 9 11 14 15 18 18 12 20 28 29 27 30 32 34 33 33 32 34 34 35 31 30 28 26 25 25 29 28 25 24 22 23 22 22 22 24 22 23 22 21 22 22 21 20 19 18 18 18 17 18 15 15 15 13 12 12 13 13 12 12 12 9 10 8 9
14 20 10 11 15 10 16 14 15 12 11 10 9 10 8 7 7 7 8 7 6 8 11 13 10 14 19 22 29 26 27 27 29 30 32 34 31 32 31 32 29 28 29 28 26 25 27 28 26 25 25 24 24 23 20 22 24 25 23 22 21 22 21 21 21 20 20 21 19 18 21 19 17 15 13 10 11 12 12 13 12 13 11 10 10 10
12 17 17 11 9 13 11 11 14 14 10 8 11 7 6 6 5 5 5 4 6 8 10 9 9 11 16 19 18 20 27 29 33 30 30 29 34 32 33 32 29 32 32 30 28 26 28 26 27 25 24 24 22 23 24 23 23 23 22 22 22 21 22 21 20 19 19 19 19 17 18 16 15 14 12 9 10 11 10 9 7 8 7 6 8 9
15 15 18 13 15 16 9 11 10 16 11 9 10 10 10 9 7 5 4 6 5 6 5 6 9 10 18 18 22 23 26 30 34 34 31 30 29 32 32 30 30 28 27 28 28 28 27 27 26 27 25 25 24 22 24 25 25 26 24 23 23 22 22 20 20 21 21 20 18 18 17 15 13 14 12 9 8 10 14 15 14 14 12 11 10 12
12 14 13 14 20 17 14 19 21 20 19 14 11 10 10 10 8 7 6 6 5 7 6 6 7 10 12 20 18 25 28 27 32 33 32 31 29 27 29 33 31 28 28 28 27 27 29 26 27 26 25 24 22 23 23 23 23 27 24 23 24 23 22 21 18 19 20 19 19 17 15 16 13 14 16 17 17 18 13 12 14 15 13 11 8 10
10 11 17 15 16 9 9 9 12 15 10 14 19 14 9 9 8 8 6 8 8 7 6 10 9 8 13 15 23 27 30 29 28 29 31 32 31 26 27 31 28 28 26 26 26 24 25 25 27 27 25 23 23 24 24 24 23 23 25 25 25 23 23 21 21 20 20 19 17 18 17 14 14 16 16 16 16 17 17 15 15 10 15 9 8 13
9 8 12 11 11 10 13 10 11 12 11 15 12 8 6 6 6 6 7 10 8 5 8 6 10 13 17 19 23 26 26 31 28 27 28 30 29 27 28 29 28 28 29 27 27 25 26 25 25 24 23 24 24 24 24 24 24 24 24 24 24 23 22 21 20 19 19 17 18 18 15 15 15 16 15 15 15 16 16 13 16 14 13 11 9 12
Wind_Speed
5 10 12 14 10 11 12 11 9 10 9 8 11 9 10 10 8 8 10 13 12 12 15 13 10 11 12 14 12 10 7 9 10 9 8 8 9 9 10 11 11 11 11 7 6 7 9 11 9 10 11 10 9 8 8 9 8 10 10 10 8 5 7 8 7 5 6 7 6 5 6 6 3 3 4 5 4 4 3 2 3 2 4 4 4 5
10 10 13 9 9 12 12 10 9 11 15 11 8 10 9 12 10 9 9 14 11 10 12 14 11 7 14 12 13 13 13 12 11 8 9 9 9 9 12 11 11 10 8 10 9 8 8 9 9 9 10 11 13 8 7 9 9 8 8 9 7 5 6 6 7 7 6 4 5 6 6 6 5 4 5 5 4 4 4 3 3 2 0 2 5 5
14 15 9 9 10 9 11 13 10 12 13 14 8 6 9 12 11 12 14 13 9 11 9 15 13 7 14 11 10 14 13 10 11 14 13 13 11 9 9 11 11 10 10 10 12 11 11 11 11 10 10 9 10 10 7 6 8 8 8 8 6 6 5 6 7 7 7 3 5 5 5 6 4 4 3 4 4 5 5 2 3 3 2 7 7 7
10 12 11 10 10 12 10 13 13 12 12 10 10 7 6 4 12 8 16 14 8 11 10 16 7 9 10 7 5 4 7 9 7 7 9 10 15 14 14 14 14 12 12 12 12 11 12 13 12 11 11 11 10 8 7 7 8 7 7 7 7 6 5 6 5 6 5 5 5 6 6 5 4 5 3 4 4 3 2 3 5 6 8 9 9 9
9 5 11 11 11 13 12 14 15 12 10 12 11 7 7 10 7 11 7 8 7 7 13 13 10 4 7 11 6 4 7 10 9 9 8 4 5 8 8 8 10 11 10 13 11 7 9 11 12 12 11 11 11 8 8 7 6 5 7 6 8 6 6 6 6 8 7 7 6 7 7 6 8 6 4 3 3 3 6 7 8 9 10 10 10 9
11 11 13 14 13 14 13 12 17 13 8 10 11 10 10 11 11 11 8 9 5 6 8 20 5 1 4 6 11 9 8 8 9 12 10 10 10 10 11 12 11 11 8 10 10 10 7 7 9 11 12 12 10 10 7 7 6 6 6 6 5 5 5 5 6 8 7 7 8 7 7 7 6 6 5 5 6 7 7 8 7 9 9 10 9 9
8 11 16 16 14 14 15 12 14 15 9 8 9 10 15 16 15 8 14 10 5 9 7 14 10 2 4 10 6 7 10 10 8 11 10 12 12 10 10 12 13 13 11 10 10 10 9 8 8 9 10 11 11 9 9 7 7 8 7 5 4 5 6 4 5 6 7 7 6 7 7 7 7 7 3 3 7 8 7 7 8 7 8 9 9 8
10 17 15 15 15 15 14 15 13 18 10 10 7 8 12 15 16 13 13 13 2 6 7 11 8 9 5 8 13 6 7 10 9 10 11 11 12 11 11 13 13 12 13 12 12 11 9 7 7 9 10 9 10 10 9 8 7 9 7 5 4 5 6 5 6 6 6 8 6 7 7 7 7 7 7 8 7 7 7 8 8 7 7 8 8 8
11 13 17 18 16 13 14 12 8 15 12 7 9 11 11 12 14 14 7 3 4 7 8 6 13 6 5 10 10 9 8 7 11 12 12 12 13 14 13 13 14 14 15 14 12 12 11 9 7 8 9 8 9 9 10 9 8 7 6 5 5 5 5 5 5 5 4 4 6 7 7 8 6 7 7 8 8 8 7 8 6 8 8 8 7 7
10 10 18 16 14 12 9 12 12 15 14 10 9 10 12 10 12 9 4 5 4 10 8 10 9 5 4 6 7 7 8 10 11 14 13 14 16 16 15 14 15 14 14 14 14 13 12 10 10 8 8 9 8 7 8 8 8 7 6 7 6 4 3 3 4 5 5 5 6 7 7 10 8 7 8 7 8 7 7 8 8 8 7 6 6 6
10 10 12 13 15 10 10 11 15 9 11 5 13 9 13 10 4 3 5 4 2 4 7 11 11 8 3 8 13 11 10 16 11 10 10 13 13 13 13 16 15 16 15 14 14 13 12 12 11 10 11 10 9 8 9 8 8 7 7 7 6 4 3 3 4 4 6 5 5 6 7 8 10 9 9 9 8 7 7 8 7 7 6 6 6 6
13 12 10 10 12 10 8 10 14 11 9 12 9 9 7 4 2 3 3 1 1 3 5 6 9 13 6 8 10 13 19 19 20 19 19 17 16 14 14 13 14 14 14 14 14 14 15 12 11 10 10 11 10 10 10 9 8 7 7 7 8 5 5 3 3 3 6 7 8 8 9 9 9 8 8 9 9 8 9 7 8 7 7 6 6 5
12 13 6 11 12 15 12 9 13 14 11 12 9 6 8 2 4 5 3 5 2 2 5 9 11 4 7 12 18 19 8 12 14 17 21 20 17 16 14 14 12 12 14 14 13 14 13 13 13 12 12 11 11 11 11 10 9 8 8 8 9 6 4 5 6 6 7 8 8 9 9 8 8 9 9 9 8 7 8 7 9 7 6 6 6 5
3 10 13 9 13 13 10 11 10 12 12 14 12 6 7 5 7 6 2 2 1 3 5 11 11 6 2 3 23 22 17 19 19 15 20 20 19 18 16 14 13 13 13 13 13 13 13 13 12 12 12 11 11 11 11 11 10 9 9 9 10 9 6 6 6 7 8 8 8 9 8 8 9 9 9 8 8 8 8 8 8 7 6 6 5 5
6 11 14 13 9 13 11 9 9 4 7 11 8 6 5 2 3 5 2 4 4 4 4 0 3 3 4 5 18 23 20 16 17 15 19 18 17 16 14 14 15 14 12 13 13 13 13 13 14 12 11 11 11 12 12 10 9 10 10 10 11 10 7 7 6 7 7 7 8 8 8 8 8 9 9 8 7 8 8 8 8 7 6 6 5 6
9 3 7 8 5 15 13 10 9 9 5 9 8 3 4 6 5 3 2 1 1 1 2 1 2 1 2 10 19 13 13 13 13 14 17 17 16 16 14 15 14 14 14 13 14 14 14 14 13 11 11 11 11 13 11 10 11 11 11 10 10 9 7 7 7 6 7 7 8 8 9 8 9 8 8 8 8 8 8 8 8 7 6 5 5 4
9 6 13 12 8 21 11 11 7 10 5 9 5 9 6 3 5 3 2 2 2 3 4 1 2 2 2 11 9 17 16 15 16 17 19 17 17 17 16 14 14 14 15 14 14 14 15 14 12 12 12 11 12 11 10 11 11 12 11 11 10 8 7 6 6 6 6 7 8 7 8 8 8 8 9 9 10 10 8 7 7 6 6 5 4 3
7 3 15 10 5 2 1 1 2 7 4 5 8 4 2 4 2 6 4 0 2 4 4 2 3 1 5 2 10 12 16 18 17 17 20 18 17 16 14 14 15 15 15 15 14 14 14 14 14 13 12 12 12 11 12 12 10 9 9 11 11 10 9 6 6 6 6 8 8 9 9 9 9 9 9 8 9 8 8 5 5 5 5 4 3 3
3 3 5 7 5 1 3 3 7 8 4 8 8 5 7 6 7 2 5 3 5 3 0 4 6 2 7 7 4 5 15 13 16 17 20 18 17 14 13 15 15 15 15 14 14 14 13 13 14 14 13 13 12 11 11 11 10 10 9 9 9 10 8 7 6 6 6 6 6 6 8 9 8 8 8 7 7 6 6 7 6 6 5 3 3 4
3 4 0 4 7 3 3 2 4 5 9 6 7 8 6 3 1 2 2 3 7 3 2 3 4 3 4 12 16 15 16 19 19 18 20 21 18 14 15 14 15 15 14 14 14 14 14 14 15 15 15 15 14 13 11 11 10 11 9 10 9 8 8 8 7 5 6 6 6 7 7 6 8 8 8 7 7 7 7 6 6 5 4 4 5 6
2 4 4 5 7 7 9 6 8 7 6 9 4 3 6 1 3 4 0 3 5 4 7 2 2 2 3 10 14 18 22 21 22 21 19 18 15 16 17 16 15 15 14 14 14 15 15 15 15 15 13 13 13 11 10 11 12 10 9 9 9 10 9 8 6 5 7 7 7 6 6 8 8 9 8 9 8 8 7 6 5 4 4 5 6 6
2 7 7 6 9 9 9 4 6 7 7 6 5 3 6 8 2 4 5 1 2 3 3 5 5 4 3 7 11 17 21 21 22 24 20 18 18 18 16 16 17 15 14 15 14 15 15 14 15 14 14 13 13 12 12 11 11 10 9 9 9 9 7 6 5 7 7 5 6 6 7 8 8 8 8 9 9 8 6 5 5 4 6 7 7 8
4 3 7 5 4 7 6 7 10 10 6 9 7 3 5 6 3 3 2 4 2 3 6 6 4 4 2 3 7 15 20 21 22 23 20 17 19 18 17 16 14 16 16 15 15 15 15 14 14 15 16 15 14 13 13 11 10 10 10 10 8 7 6 6 6 7 7 8 8 8 7 8 7 8 8 8 7 7 7 7 6 6 7 8 8 8
5 3 8 4 1 9 9 6 11 11 2 4 4 4 3 7 7 5 3 4 3 1 3 1 4 2 6 2 2 10 19 21 18 20 19 16 14 16 17 16 15 14 13 15 14 14 15 14 14 14 14 13 13 13 12 11 10 10 9 9 7 8 8 7 7 8 8 8 8 8 8 8 7 8 7 7 5 6 5 6 7 7 8 8 8 10
2 0 8 4 1 3 7 1 4 7 3 1 3 6 3 4 12 7 2 1 2 4 7 7 5 2 5 4 12 10 14 16 15 14 20 17 13 15 15 14 14 15 15 16 16 15 16 15 15 13 13 13 13 12 11 10 9 10 10 7 9 9 7 5 7 9 8 8 9 9 8 7 7 7 7 7 7 7 7 7 7 6 7 7 8 8
3 3 6 7 7 8 10 10 9 8 5 1 1 4 7 2 13 9 7 1 4 3 4 4 1 4 3 6 13 16 11 11 14 15 14 18 18 15 13 14 16 16 16 17 16 16 17 16 14 12 13 12 12 12 11 10 10 9 9 10 8 9 7 6 7 8 8 7 8 9 8 7 7 7 7 7 7 8 8 8 7 7 7 8 9 9
2 2 3 4 6 5 3 2 1 1 1 4 3 3 4 6 3 6 6 3 5 1 2 1 9 3 4 10 14 16 14 16 14 14 15 14 14 14 14 14 16 16 17 18 17 15 14 14 15 14 14 13 12 12 11 10 8 9 11 10 9 7 7 8 8 8 8 8 9 8 8 7 6 6 7 7 7 7 8 8 7 8 8 8 9 9
1 3 4 3 3 3 6 7 8 9 5 4 4 4 5 4 4 2 6 7 5 4 4 0 10 8 4 8 9 16 16 16 15 15 13 14 17 15 15 14 15 15 15 15 15 15 15 15 14 14 14 14 13 11 10 8 9 11 11 11 9 8 8 7 8 8 8 8 8 8 7 6 6 6 6 6 7 7 7 7 7 7 7 8 9 9
1 2 1 1 3 5 6 8 12 10 6 7 7 8 11 7 5 4 4 3 4 5 2 4 9 9 4 7 9 12 16 17 17 17 17 18 15 14 15 16 16 16 16 17 17 16 16 15 14 14 13 12 12 12 11 10 10 10 10 9 8 8 9 8 8 8 7 8 8 7 6 6 6 6 7 8 8 8 8 8 8 8 8 9 9 9
3 0 1 1 3 7 7 10 14 13 10 5 5 2 5 6 7 7 4 3 0 2 12 7 8 7 4 3 10 11 12 15 12 11 11 13 16 17 17 17 17 17 17 18 16 13 15 16 15 14 13 12 13 12 10 9 11 11 11 11 10 10 10 9 8 8 9 9 7 7 6 7 6 7 7 8 8 7 7 7 8 8 9 10 10 9
3 2 6 3 4 6 7 3 10 15 10 5 4 5 6 5 5 2 1 1 7 2 6 11 10 7 1 10 10 9 11 12 13 13 13 14 15 16 16 16 16 16 15 16 18 17 14 14 15 16 14 14 14 14 13 13 13 12 12 10 10 10 9 9 9 9 9 9 7 7 7 7 8 8 8 7 7 7 8 8 7 8 8 8 9 10
3 1 2 2 3 4 3 2 3 5 10 9 6 8 7 4 2 1 1 2 2 3 3 7 8 7 2 4 12 12 15 17 16 15 13 12 14 16 16 16 16 16 16 16 15 17 18 16 16 16 15 16 15 14 12 13 13 12 11 10 9 8 9 9 9 10 9 8 7 7 8 8 8 8 8 7 8 9 8 8 8 8 7 8 9 9
1 2 3 3 1 4 2 10 6 6 8 6 4 3 8 3 2 0 1 3 4 4 5 5 8 11 14 11 14 8 11 12 14 15 14 14 15 15 16 16 17 16 17 18 17 17 18 18 17 14 15 16 15 13 11 11 13 12 11 11 8 9 10 10 10 10 9 8 8 8 8 9 9 8 8 8 8 7 8 8 8 8 8 8 8 8
2 3 1 1 1 2 3 6 2 4 4 3 2 2 3 1 3 3 2 2 3 4 2 6 7 12 15 13 18 14 15 16 15 12 15 17 15 13 13 13 13 14 15 16 18 19 18 16 13 16 18 17 15 15 11 9 10 10 10 10 9 11 11 11 10 9 9 8 8 9 9 8 9 9 8 8 8 9 9 8 8 7 6 7 8 9
2 3 1 1 1 2 3 6 4 0 2 3 1 1 2 5 8 2 3 3 3 4 8 13 14 13 15 12 16 14 10 9 9 13 12 14 17 16 17 15 14 15 17 17 17 15 15 17 18 14 13 13 12 11 13 13 12 11 9 9 11 11 11 11 10 9 8 9 9 9 8 9 9 9 9 9 10 9 9 8 8 8 6 7 8 8
1 2 1 3 1 3 3 2 2 2 2 3 4 2 3 4 3 5 4 4 3 6 7 12 12 15 11 10 10 12 14 12 9 7 10 11 12 15 16 16 17 18 18 16 17 15 15 17 21 20 15 10 12 13 12 11 11 12 11 9 9 9 10 10 10 10 9 9 9 9 9 10 9 9 9 10 9 8 8 7 8 8 7 7 7 7
1 1 1 2 2 1 1 4 3 0 3 5 4 4 3 2 1 3 0 4 3 2 7 10 13 10 10 13 15 14 14 12 9 7 8 12 11 12 17 17 17 15 15 14 15 16 16 16 15 16 15 14 14 13 11 11 12 11 12 13 10 9 9 9 10 10 9 9 9 10 9 9 10 10 9 9 9 8 8 8 8 8 7 8 8 8
2 2 2 3 2 2 2 2 1 1 0 4 4 5 0 4 2 1 2 5 5 4 0 9 16 13 11 13 15 16 15 12 9 8 10 12 13 14 11 11 12 13 14 15 12 12 13 14 14 12 13 16 13 8 10 12 12 14 13 11 11 10 6 8 8 9 10 9 9 9 9 9 9 9 9 8 9 8 8 7 7 8 8 8 8 8
5 4 1 5 0 2 1 1 1 2 4 5 6 6 2 1 0 3 2 5 5 5 5 1 11 14 16 15 13 14 10 9 10 11 11 13 11 14 15 15 15 15 15 17 18 15 13 13 14 14 13 13 12 11 13 15 16 14 13 11 11 13 10 6 8 9 9 9 9 9 8 8 9 9 8 8 7 8 9 8 8 8 8 8 8 8
6 2 1 0 1 0 2 0 1 0 1 2 3 3 3 3 5 7 3 5 3 7 6 4 4 14 16 17 17 12 13 9 9 10 12 13 14 15 17 17 17 16 15 15 15 17 15 14 13 13 14 14 12 12 15 14 13 12 11 9 10 12 13 9 7 7 7 8 8 8 8 8 9 8 8 8 7 7 7 6 7 8 9 8 8 7
0 1 2 2 3 1 2 2 2 2 4 3 2 2 3 4 5 5 7 3 4 5 5 4 5 6 11 16 14 11 11 14 15 12 13 14 14 13 13 15 16 17 16 15 15 15 14 14 15 16 15 13 14 13 13 13 13 12 11 10 10 12 12 9 7 8 9 9 9 9 9 8 9 9 7 6 7 7 6 7 7 8 8 8 7 7
2 1 0 2 1 1 3 2 3 1 3 1 1 5 3 5 0 2 4 3 2 5 6 5 3 5 10 12 10 13 12 5 14 17 18 17 16 15 16 16 15 14 14 15 16 14 13 13 12 13 13 13 14 14 13 14 14 12 12 11 10 9 10 11 10 10 10 10 10 10 9 9 8 7 7 6 7 7 7 5 6 7 8 7 7 8
3 1 1 3 1 1 1 1 0 0 2 0 1 4 3 4 3 4 3 3 2 4 6 7 6 3 12 14 12 5 5 12 17 18 18 17 18 18 18 19 19 19 17 17 16 15 16 14 15 15 15 13 13 12 12 14 13 11 10 11 10 10 11 11 10 10 10 10 10 9 9 8 8 7 6 6 6 7 7 7 8 7 8 7 6 6
1 1 0 1 2 2 1 1 1 2 2 1 3 2 1 3 4 1 2 4 6 6 6 6 6 4 3 13 14 6 13 13 12 13 13 13 15 15 15 16 16 16 15 14 16 16 16 16 15 15 15 14 13 13 13 13 12 12 13 12 10 11 11 11 11 10 10 8 8 8 8 8 7 6 6 7 7 6 7 7 7 7 7 7 7 7
2 2 2 1 0 1 1 1 3 2 1 4 4 3 3 1 2 4 3 2 4 5 4 4 6 7 3 6 8 16 13 16 18 18 18 16 17 18 19 18 19 18 18 17 16 16 15 16 18 16 14 13 15 12 11 11 14 15 15 11 11 12 12 12 10 9 9 9 9 9 8 7 7 7 6 6 7 7 8 7 7 7 6 6 5 5
1 5 2 4 1 2 1 1 2 5 5 6 4 3 4 4 4 4 4 4 3 1 2 4 5 5 7 10 15 11 15 15 16 12 13 15 16 15 15 15 14 15 16 15 15 16 15 15 15 15 16 15 14 12 12 12 14 16 13 11 11 12 12 11 10 10 10 10 9 9 9 9 7 7 7 6 7 7 7 8 7 7 6 6 6 6
2 1 0 1 1 2 1 4 6 3 2 4 3 3 3 1 2 2 3 1 2 4 4 4 5 6 10 11 11 13 14 15 16 14 14 14 16 17 18 18 17 18 19 18 17 15 15 16 15 15 15 14 12 12 12 13 12 13 13 12 12 12 11 10 11 11 10 11 9 8 9 9 8 7 7 6 7 7 6 5 4 5 3 4 6 5
5 5 2 0 3 2 3 2 1 0 2 1 2 3 1 1 3 2 1 2 3 3 4 4 5 5 9 11 14 14 11 11 16 15 14 14 15 15 16 17 18 16 16 17 16 15 15 15 15 15 14 14 12 12 12 12 12 13 13 12 12 10 11 12 12 12 11 10 9 9 9 9 11 10 7 4 4 7 7 6 6 7 6 4 5 8
4 4 1 1 1 2 5 3 3 3 2 5 5 4 2 4 3 4 4 2 0 2 4 4 5 5 6 11 12 15 15 12 13 16 15 13 13 14 15 16 17 17 17 18 17 17 16 15 15 16 15 14 12 12 12 12 13 14 15 13 11 13 13 12 12 11 10 9 9 9 9 8 6 6 7 7 7 6 4 7 8 8 5 2 0 6
3 1 2 5 4 2 0 3 2 2 2 2 1 1 2 3 4 3 3 1 2 1 3 2 5 2 6 9 13 15 16 13 12 14 15 14 14 14 14 15 16 17 16 15 14 15 15 15 17 17 16 13 13 13 13 13 13 14 13 12 12 14 13 12 12 10 10 10 9 9 8 7 8 8 8 8 8 9 8 10 9 5 8 5 6 9
1 1 1 3 4 2 6 7 5 6 3 0 2 2 0 2 3 3 1 2 3 2 5 3 6 8 8 8 12 14 13 14 12 12 13 11 11 12 14 16 16 16 16 16 16 16 16 16 16 15 15 14 14 14 14 14 14 13 12 13 13 13 13 12 11 10 10 10 9 10 8 8 8 8 8 8 9 9 9 7 9 11 10 9 8 10
Wind_Direction
181 207 209 211 198 203 215 219 217 222 241 223 202 207 206 227 245 225 216 219 203 186 191 201 201 166 158 151 156 149 134 119 129 138 139 136 130 134 138 144 146 150 150 145 142 136 136 131 140 134 120 115 114 132 146 138 136 137 139 134 124 127 135 131 127 116 120 123 125 112 110 114 125 102 94 89 83 80 98 108 138 133 104 113 197 234
214 222 223 207 202 200 208 221 223 219 234 240 213 199 201 207 235 239 224 220 195 177 193 199 204 169 160 155 150 144 137 145 151 146 145 142 138 142 145 144 147 148 126 138 133 129 126 131 131 122 117 118 128 144 150 145 142 136 133 124 126 140 146 130 124 126 120 142 144 130 135 133 132 127 98 90 87 87 71 73 62 53 70 126 89 63
211 218 204 206 202 208 203 213 226 225 231 240 233 209 202 201 210 236 249 236 196 180 176 188 203 177 160 151 149 155 150 157 164 158 161 149 145 143 146 146 143 142 145 148 141 140 139 141 136 131 126 124 127 141 144 137 135 136 128 121 136 158 131 117 127 126 131 133 129 129 148 135 114 80 87 105 91 102 103 134 140 156 137 81 72 59
203 222 204 205 201 208 202 204 217 234 239 234 231 239 236 210 189 210 240 245 190 185 164 181 165 96 130 114 121 145 127 135 143 144 146 154 151 157 164 158 148 140 149 149 141 147 150 151 144 138 133 129 129 132 136 143 139 140 135 135 153 157 131 121 130 121 118 119 114 108 109 93 93 112 98 75 75 97 156 116 120 91 72 67 61 53
207 154 197 207 207 205 206 194 209 219 234 235 227 226 229 252 219 198 226 241 177 174 132 99 89 95 125 144 141 134 121 120 122 121 129 136 114 120 117 112 126 130 137 138 132 131 147 147 145 140 131 126 130 137 144 144 138 143 139 147 161 148 129 126 132 122 124 118 103 102 102 105 100 84 91 107 99 109 92 78 58 56 57 56 56 50
196 191 187 207 206 202 211 197 206 209 229 244 235 223 238 243 246 218 213 210 129 216 136 132 80 165 185 145 142 144 120 126 140 137 150 143 139 136 131 132 127 128 135 127 134 142 149 148 136 129 128 128 133 140 146 141 131 132 136 150 157 117 122 134 136 136 141 141 137 135 125 117 111 107 104 113 116 100 87 79 73 61 57 59 55 49
182 188 189 203 200 200 209 217 203 207 212 225 231 211 231 246 257 256 216 219 152 180 208 146 135 212 349 320 308 148 148 143 148 145 146 141 144 141 140 141 139 143 128 125 130 138 147 142 136 133 130 131 139 142 140 142 130 129 147 156 135 123 127 138 136 137 137 136 144 141 131 122 123 119 102 89 97 100 93 89 80 75 67 63 60 50
197 185 192 197 201 203 204 214 205 199 203 225 233 219 227 238 250 254 248 217 185 168 198 170 138 142 162 216 238 220 148 144 142 145 153 147 147 149 149 148 145 141 139 139 139 141 147 139 140 140 134 140 145 143 140 137 130 135 151 151 122 111 136 140 137 141 148 139 136 126 119 117 117 114 113 105 101 98 98 88 86 79 69 64 64 56
209 181 190 191 201 204 208 207 197 192 208 215 232 233 235 236 244 251 276 293 191 131 200 218 115 92 168 191 202 157 145 161 163 159 164 157 151 154 157 154 146 148 145 140 139 143 146 140 135 137 142 142 140 143 139 133 128 135 141 119 102 124 145 143 139 137 137 126 135 131 129 121 115 114 110 106 103 103 102 99 92 83 77 67 60 61
217 209 187 193 195 207 201 200 217 192 204 209 230 234 248 242 241 251 264 274 215 171 215 211 177 124 171 169 178 170 162 181 175 168 167 163 158 160 161 152 148 144 143 143 143 143 146 145 147 148 135 138 143 126 116 118 126 131 128 122 132 142 145 136 119 117 117 120 122 120 130 125 126 121 114 112 112 107 102 95 90 87 85 84 74 61
205 222 184 195 197 200 192 198 217 206 204 171 230 241 243 236 254 263 252 250 31 260 227 189 174 157 131 198 180 170 191 186 165 153 159 158 160 161 154 153 154 151 153 151 148 147 143 143 143 140 141 138 127 121 121 125 133 127 125 132 131 132 117 117 127 132 126 123 121 125 127 124 125 124 121 114 107 108 100 99 95 94 98 89 83 73
203 201 202 190 185 196 191 190 207 222 194 198 211 220 247 291 323 304 286 83 158 268 260 213 176 177 138 205 209 204 192 177 163 163 162 161 159 152 155 158 153 151 147 144 144 139 137 138 132 133 137 137 133 131 130 134 133 127 129 132 127 128 128 128 132 128 113 108 105 101 101 104 107 112 110 105 104 105 105 105 104 93 79 69 69 67
207 198 196 175 182 194 190 193 194 215 211 210 206 188 181 209 164 249 213 230 191 184 240 207 186 176 210 175 189 206 188 164 176 164 164 157 152 152 159 155 149 144 143 145 142 140 143 142 141 146 143 140 142 139 138 135 132 130 130 132 127 116 108 109 112 109 106 101 98 98 98 97 97 96 99 99 100 91 86 81 81 88 90 82 67 50
237 189 197 183 170 202 189 194 178 205 204 202 207 176 167 169 187 217 220 146 316 251 281 184 169 220 143 183 181 186 186 173 174 163 155 154 153 154 157 149 144 148 147 144 143 143 141 140 146 148 145 145 141 137 136 136 136 135 130 124 115 110 106 105 100 98 94 93 96 94 93 91 91 90 87 87 89 88 86 89 90 90 91 88 82 65
156 183 198 179 181 179 206 203 179 191 168 200 215 168 162 155 167 200 120 173 198 216 244 249 134 237 222 223 184 187 176 169 166 152 150 148 143 146 150 143 145 147 144 142 145 144 140 144 147 144 141 139 138 137 138 141 131 124 123 120 118 116 113 108 103 98 95 96 95 93 91 93 92 91 89 87 90 91 90 87 93 88 82 82 84 79
212 217 168 206 144 173 202 206 166 183 147 210 207 204 251 242 146 133 198 113 175 171 344 333 169 252 214 193 170 172 161 151 145 137 140 141 141 144 147 152 154 147 142 143 142 139 144 147 142 136 137 137 138 138 140 131 128 125 123 120 117 116 115 107 106 100 102 98 98 100 101 97 95 94 93 91 86 83 82 82 87 92 94 93 92 98
173 187 172 204 163 179 197 190 189 171 162 198 184 208 208 229 110 114 75 120 101 60 276 208 341 351 38 13 140 153 157 152 147 140 143 145 148 149 154 155 150 145 145 146 146 142 145 142 136 137 137 138 140 141 137 131 131 129 126 122 118 113 105 103 100 103 102 102 97 96 98 99 96 94 94 95 90 89 88 92 95 98 101 100 100 103
135 236 180 168 120 152 210 247 244 177 160 149 211 233 244 254 118 124 169 37 112 138 253 266 197 237 78 216 334 161 149 150 152 142 143 147 148 154 157 154 149 147 145 145 141 141 141 138 138 139 139 140 140 136 130 130 127 121 122 123 121 119 117 115 108 101 101 100 98 100 100 98 99 100 96 92 91 91 99 104 96 91 88 100 113 113
132 74 152 133 104 36 0 321 306 283 255 175 197 154 206 177 227 265 103 162 163 189 268 273 235 217 151 169 154 223 147 134 145 136 144 151 157 155 148 148 145 142 142 144 143 143 141 141 141 140 139 139 134 128 127 122 116 116 114 114 116 119 119 117 111 104 95 91 98 101 106 108 107 106 108 109 108 108 104 96 96 96 101 90 82 76
140 122 170 131 148 140 239 176 227 258 273 238 160 204 197 112 175 96 186 163 131 196 164 285 229 232 208 166 171 174 147 144 145 142 154 161 163 152 149 147 147 149 149 146 146 145 143 141 141 141 141 140 136 132 130 120 116 115 115 114 111 107 108 109 111 107 103 99 100 105 99 94 102 105 110 110 107 103 101 99 100 104 101 102 83 81
112 110 147 179 168 142 216 198 208 202 195 209 180 211 185 197 175 129 310 171 159 170 173 178 257 281 263 178 161 153 151 152 150 154 159 163 154 149 151 152 153 152 151 149 148 146 145 143 140 140 136 132 128 127 123 120 122 120 118 116 113 116 119 125 125 113 113 112 112 107 102 106 104 103 99 93 94 100 103 109 113 118 116 86 79 78
78 121 158 163 185 192 220 187 208 211 209 195 167 201 184 175 101 163 281 265 177 112 192 163 233 265 271 173 170 146 154 155 154 156 160 158 149 153 154 155 155 153 151 146 146 145 144 141 140 135 132 131 131 130 125 126 123 124 123 122 121 123 131 130 123 118 114 110 109 106 101 95 96 100 98 98 102 104 107 108 105 100 90 89 82 78
140 139 125 174 193 183 208 192 216 237 198 188 173 231 181 147 130 111 140 249 194 252 155 155 165 264 251 284 178 141 153 157 157 155 158 152 153 156 154 153 154 150 147 146 144 144 140 140 140 137 137 138 136 129 127 126 126 125 123 122 126 126 121 114 105 103 107 107 104 96 94 95 95 99 102 104 110 116 113 109 100 90 89 85 81 75
104 110 145 159 171 158 207 196 214 237 248 176 214 204 154 176 190 167 160 189 169 253 223 52 170 255 284 289 167 135 150 153 149 151 143 144 149 151 148 149 147 143 139 139 140 140 138 139 137 137 138 135 133 132 131 128 124 122 121 124 123 118 115 104 105 109 105 103 95 98 97 94 96 99 105 113 120 120 119 112 104 99 93 93 88 84
134 259 129 133 78 134 187 217 242 235 226 202 178 217 178 185 186 198 251 340 260 221 161 132 166 284 281 47 74 75 132 135 141 135 136 137 141 146 146 144 143 141 140 141 141 142 138 140 141 142 137 135 134 132 129 129 129 129 131 126 120 120 119 113 114 113 110 105 106 105 103 102 103 107 109 111 108 104 101 97 95 90 88 84 81 80
97 173 112 155 168 163 178 191 197 207 214 324 263 186 207 183 180 174 220 262 236 275 155 123 146 270 285 67 105 120 109 114 121 127 133 139 143 147 145 144 144 144 144 141 141 143 142 143 141 137 137 136 134 133 131 133 139 135 126 123 122 125 129 122 116 115 116 115 114 113 111 111 109 109 111 109 106 104 102 100 97 95 90 90 87 84
141 160 110 145 145 175 190 137 59 66 102 225 270 222 202 215 169 169 168 124 200 251 61 195 145 151 77 62 95 118 121 119 118 123 130 133 140 148 151 150 148 148 147 145 144 143 138 141 142 138 139 136 134 136 138 143 139 125 125 124 125 127 125 121 118 120 118 116 116 116 117 117 117 116 113 110 109 108 106 106 106 102 101 97 94 91
37 136 173 136 179 213 156 165 161 194 191 207 230 237 251 236 209 134 166 213 173 100 238 224 145 121 162 96 120 131 127 125 134 138 140 148 151 154 151 143 142 145 143 139 140 142 143 141 136 137 138 138 139 140 138 135 127 129 128 130 134 132 127 126 126 125 122 119 118 118 120 120 120 117 111 105 101 99 99 96 95 96 96 93 89 86
115 112 275 137 262 240 188 184 162 183 204 208 218 193 214 237 256 176 191 220 106 142 190 186 122 127 135 131 126 130 134 140 148 151 155 152 146 142 142 142 147 148 146 144 146 145 142 142 139 135 136 138 138 135 131 125 126 129 130 133 138 135 135 136 133 130 124 120 121 125 124 118 113 110 106 103 98 96 93 92 90 88 90 92 92 87
66 260 74 22 286 273 235 199 172 175 191 213 200 198 202 238 244 221 200 216 93 165 142 157 132 123 139 129 128 137 133 132 131 129 134 142 147 149 146 148 150 150 150 147 145 143 142 142 141 140 144 144 140 130 122 123 134 138 141 146 147 142 143 141 139 129 125 124 125 126 123 117 112 108 106 104 103 100 97 93 89 89 89 92 92 91
104 314 32 66 23 312 266 180 153 167 174 217 203 224 225 222 225 203 139 106 91 109 155 134 134 89 342 133 116 110 105 108 119 130 143 149 148 148 148 150 150 150 149 150 146 143 142 145 146 147 150 145 137 138 142 139 143 142 144 149 147 143 143 137 130 125 126 127 131 128 122 116 114 111 110 110 104 100 97 94 93 91 91 93 96 95
75 262 64 69 45 304 288 65 335 177 170 184 192 219 237 206 214 276 251 177 120 152 170 126 127 119 197 124 116 125 132 133 137 142 143 150 153 151 152 153 152 148 147 148 145 143 146 151 155 156 149 141 143 151 147 144 146 145 146 149 148 144 137 129 128 128 130 134 134 130 126 123 120 117 112 107 106 106 103 99 95 93 91 93 98 101
100 99 55 36 49 272 241 75 26 153 139 187 248 254 215 185 159 224 244 129 172 130 106 155 197 169 153 148 125 144 137 139 139 144 144 149 156 158 157 159 155 151 149 148 148 154 155 155 154 146 140 142 148 153 153 143 144 147 150 149 146 134 132 130 130 131 136 140 137 134 129 128 125 121 117 114 113 107 103 100 97 96 93 93 101 103
57 79 98 94 164 264 65 53 62 48 115 214 230 308 59 184 185 170 252 221 235 140 190 179 155 148 146 152 142 155 158 164 158 160 155 152 156 160 157 157 154 149 149 153 159 160 155 148 145 149 153 156 154 152 138 126 137 142 147 146 139 136 135 133 135 139 143 142 140 137 135 132 127 123 121 116 110 108 107 106 106 105 102 98 93 98
54 69 281 187 128 276 16 56 44 116 212 243 239 110 67 63 59 12 263 214 222 179 106 107 129 152 163 170 156 148 135 123 138 147 164 165 159 159 160 159 156 153 157 161 161 160 155 146 139 145 147 148 149 142 141 146 148 148 144 140 135 136 138 139 142 145 145 143 143 140 135 130 128 125 122 119 118 118 119 120 118 113 111 105 104 107
52 85 297 336 147 11 44 66 103 247 238 281 320 91 99 65 60 46 2 318 252 183 146 135 157 154 151 128 123 132 138 140 140 151 155 158 160 155 154 163 166 165 164 163 157 155 151 149 149 153 156 151 146 149 150 145 142 138 140 128 127 135 141 144 144 144 145 144 142 137 133 129 125 123 123 124 125 124 123 119 117 117 113 102 91 87
356 61 61 313 39 112 207 126 186 306 355 350 354 344 69 96 40 99 147 274 267 240 175 142 153 146 138 132 132 132 131 129 131 156 173 163 164 162 163 166 161 156 153 154 152 152 155 154 149 144 143 148 151 153 152 143 139 136 130 133 149 140 145 144 143 143 140 138 134 132 131 128 126 125 125 125 124 124 122 119 115 111 106 98 94 91
247 187 225 103 312 103 68 53 27 36 257 282 259 269 283 133 125 185 91 307 305 351 222 145 149 147 134 136 136 138 131 120 143 182 186 173 164 156 152 141 142 145 149 145 145 149 150 146 141 143 147 146 143 137 136 133 127 131 137 145 137 134 127 132 137 137 136 135 132 131 131 129 127 127 126 125 127 128 126 122 117 116 112 109 106 99
221 214 156 120 192 76 85 81 215 142 244 210 246 251 279 43 107 101 67 290 279 14 10 139 150 143 142 143 147 141 131 145 184 188 183 169 154 150 146 148 147 150 153 151 150 149 148 146 142 140 139 135 130 136 133 131 133 136 141 140 134 124 124 145 138 138 136 135 133 129 126 125 123 125 126 127 130 130 131 134 134 128 118 118 115 118
225 209 68 73 74 142 134 151 286 196 196 273 232 178 180 79 70 74 161 262 283 343 334 42 141 153 149 151 155 155 152 168 183 197 178 157 149 150 149 151 150 153 154 150 149 148 147 142 139 143 144 139 135 135 132 132 132 133 133 135 135 133 135 155 152 132 125 121 121 119 117 118 120 123 126 129 126 126 132 133 123 126 127 129 131 132
337 335 118 189 163 278 157 254 78 309 283 288 190 175 122 89 77 119 196 236 281 317 345 13 126 168 159 156 159 162 192 177 184 153 137 137 139 146 145 145 148 149 149 150 151 148 145 150 151 148 145 139 138 136 133 132 132 136 140 142 142 143 142 142 128 119 115 117 116 117 116 117 123 125 126 130 132 130 124 126 128 125 126 132 135 135
325 74 301 102 39 202 209 146 210 210 242 240 317 103 113 65 60 214 231 216 266 341 346 10 11 174 158 181 173 178 189 160 119 128 138 148 147 145 141 141 141 145 147 147 147 148 144 144 141 137 136 139 140 139 138 138 141 146 150 151 146 139 128 125 124 121 120 119 121 121 122 124 126 127 132 133 125 126 131 131 119 122 126 126 131 140
208 114 240 167 237 37 49 271 334 170 279 231 72 23 49 112 226 216 257 310 20 1 28 357 12 339 167 174 190 178 106 128 135 141 145 141 140 145 148 148 150 151 152 150 152 151 146 145 147 146 143 142 142 143 144 147 149 150 144 136 137 131 125 124 126 126 126 126 126 128 130 133 133 135 133 131 130 128 124 119 121 125 127 134 142 149
190 109 21 286 158 152 172 196 196 213 243 20 92 169 221 164 198 184 36 3 352 23 16 8 351 338 192 167 173 135 131 121 117 124 127 134 136 138 141 143 142 142 145 150 149 150 150 147 148 147 149 149 150 152 155 154 145 140 134 136 138 128 127 127 131 131 132 133 132 132 135 136 137 134 135 137 133 124 119 120 125 130 138 151 153 163
242 131 171 140 284 156 196 205 252 284 84 47 80 111 121 168 75 58 76 60 43 359 357 20 350 332 168 136 115 126 131 137 143 148 144 149 145 146 149 153 152 149 150 153 154 152 154 151 150 151 151 152 154 155 150 143 139 137 136 143 137 136 136 138 139 138 139 139 137 138 138 133 135 138 137 141 134 130 131 133 139 145 163 155 159 161
290 145 179 97 358 21 73 148 123 35 354 32 47 63 69 42 27 44 49 36 33 58 52 40 356 21 44 118 124 129 134 136 133 138 135 140 143 144 139 137 142 145 146 148 151 156 154 152 151 151 150 152 151 146 143 141 143 142 144 144 142 143 144 144 142 141 142 141 142 143 141 137 138 138 140 141 141 142 147 148 155 159 172 165 171 175
295 16 346 133 192 65 316 316 20 359 334 69 49 36 35 21 39 42 7 22 38 8 44 51 68 48 80 75 98 118 128 139 135 138 140 141 144 148 150 150 152 154 154 156 156 153 152 154 153 152 149 146 146 143 142 142 143 142 145 148 149 150 148 144 142 141 141 145 146 144 142 143 145 147 149 148 156 155 146 141 123 117 121 146 157 148
299 353 36 20 109 124 210 159 261 328 337 329 75 51 349 29 62 4 1 80 20 4 23 116 92 87 99 103 116 118 122 133 136 141 145 148 147 147 149 151 153 154 157 154 156 155 151 154 154 150 149 148 150 147 146 146 146 149 151 152 155 149 143 143 145 146 149 149 146 145 148 147 156 151 143 134 120 103 94 88 104 99 94 98 110 111
186 276 91 289 75 46 46 19 329 23 353 22 42 49 36 49 34 19 359 15 24 13 1 24 125 162 135 134 131 132 135 146 145 142 142 144 145 150 154 155 156 155 154 156 161 160 158 155 152 152 151 153 151 148 149 149 149 153 156 157 151 146 144 145 146 148 150 147 144 148 151 147 123 112 112 101 89 69 85 125 119 110 85 22 255 129
351 36 330 46 44 29 122 257 297 89 246 296 341 313 20 23 32 47 348 350 46 28 338 24 30 111 140 137 139 140 141 145 147 143 143 147 150 148 148 151 154 154 156 156 156 157 155 156 154 155 156 156 154 152 153 153 154 156 157 150 148 146 146 148 150 151 151 149 149 151 143 126 124 118 114 112 109 101 70 41 59 93 121 102 66 81
79 293 64 132 147 215 207 207 244 211 165 190 219 268 323 65 46 360 292 50 24 16 335 108 83 58 98 127 141 138 140 142 140 135 132 139 144 148 152 153 156 158 158 158 156 159 158 158 157 155 158 160 157 155 153 155 157 158 154 149 149 149 151 152 150 149 148 149 153 153 137 132 126 127 117 117 116 108 105 90 51 45 62 93 102 95